Location: Newark
(51.1667°N, 4.4833°E)
Time: 19:26:55
(UTC+00:00)

XW-2F - Visible Passes

Search period start: 05 December 2019 00:00
Search period end: 15 December 2019 00:00
Orbit: 503 x 523 km, 97.5° (Epoch: 05 December)

Date Brightness Start Highest point End Pass type
(mag) Time Alt. Az. Time Alt. Az. Time Alt. Az.
05 Dec ? 05:15:49 10° NE 05:19:09 28° E 05:22:29 10° SSE visible
05 Dec ? 17:34:34 10° SSW 17:37:51 29° W 17:41:11 10° NNW visible
06 Dec ? 05:00:33 10° NE 05:03:26 20° E 05:06:18 10° SE visible
06 Dec ? 06:34:00 10° N 06:37:38 42° WNW 06:41:14 10° SW visible
06 Dec ? 17:18:36 10° S 17:22:10 41° W 17:25:46 10° NNW visible
07 Dec ? 04:45:34 10° NE 04:47:40 14° E 04:49:45 10° ESE visible
07 Dec ? 06:18:17 10° N 06:22:04 61° WNW 06:25:49 10° SSW visible
07 Dec ? 17:02:47 10° S 17:06:30 62° W 17:10:16 10° NNW visible
08 Dec ? 06:02:37 10° NNE 06:06:28 90° W 06:10:17 10° SSW visible
08 Dec ? 16:47:07 10° SSE 16:50:52 88° ENE 16:54:40 10° NNW visible
09 Dec ? 05:47:02 10° NNE 05:50:50 61° ESE 05:54:36 10° S visible
09 Dec ? 16:31:34 10° SSE 16:35:16 59° ENE 16:39:01 10° N visible
09 Dec ? 18:07:35 10° WSW 18:09:40 14° W 18:11:46 10° NW visible
10 Dec ? 05:31:31 10° NNE 05:35:10 41° E 05:38:47 10° S visible
10 Dec ? 16:16:10 10° SE 16:19:42 40° ENE 16:23:17 10° N visible
10 Dec ? 17:51:03 10° SW 17:53:53 20° W 17:56:45 10° NW visible
11 Dec ? 05:16:07 10° NE 05:19:28 28° E 05:22:48 10° SSE visible
11 Dec ? 06:50:06 10° N 06:53:27 29° WNW 06:56:47 10° SW visible
11 Dec ? 17:34:51 10° SSW 17:38:08 28° W 17:41:29 10° NW visible
12 Dec ? 05:00:50 10° NE 05:03:43 20° E 05:06:35 10° SE visible
12 Dec ? 06:34:18 10° N 06:37:55 41° WNW 06:41:31 10° SW visible
12 Dec ? 17:18:52 10° S 17:22:27 41° W 17:26:04 10° NNW visible
13 Dec ? 04:45:49 10° NE 04:47:57 14° E 04:50:03 10° ESE visible
13 Dec ? 06:18:34 10° N 06:22:20 61° WNW 06:26:06 10° SSW visible
13 Dec ? 17:03:02 10° S 17:06:46 62° W 17:10:33 10° NNW visible
14 Dec ? 06:02:53 10° NNE 06:06:44 89° WNW 06:10:33 10° SSW visible
14 Dec ? 16:47:21 10° SSE 16:51:07 88° ENE 16:54:57 10° NNW visible
